When you browse on this site, cookies collect data to enhance your experience and personalize the content and advertising you see.
Visit our Privacy Policy to learn more. By continuing to use the site, you agree to this use of cookies and data.
  • In Hungary
  • List of Countries
  • For 7 days
  • Water Temperature
  • Weather Map
  • News
  • Weather Widgets
  • user-avatar
    Login

    Hourly Weather Karchowice

    Today, 22 September, Sunday

    Time Temperature Precipitation Wind Pressure Humidity
    00:00 +12°C° 0 mm 2 mps 746 mmHg 64%
    01:00 +12°C° 0 mm 2 mps 746 mmHg 64%
    02:00 +10°C° 0 mm 2 mps 745 mmHg 65%
    03:00 +10°C° 0 mm 2 mps 745 mmHg 65%
    04:00 +10°C° 0 mm 2 mps 745 mmHg 65%
    05:00 +10°C° 0 mm 2 mps 745 mmHg 64%
    06:00 +12°C° 0 mm 2 mps 745 mmHg 62%
    07:00 +12°C° 0 mm 2 mps 745 mmHg 61%
    08:00 +13°C° 0 mm 3 mps 745 mmHg 54%
    09:00 +16°C° 0 mm 3 mps 744 mmHg 47%
    10:00 +18°C° 0 mm 3 mps 744 mmHg 41%
    11:00 +19°C° 0 mm 3 mps 744 mmHg 39%
    12:00 +20°C° 0 mm 3 mps 743 mmHg 37%
    13:00 +21°C° 0 mm 2 mps 743 mmHg 35%
    14:00 +21°C° 0 mm 2 mps 743 mmHg 37%
    15:00 +21°C° 0 mm 2 mps 742 mmHg 38%
    16:00 +22°C° 0 mm 1 mps 742 mmHg 39%
    17:00 +20°C° 0 mm 1 mps 742 mmHg 45%
    18:00 +19°C° 0 mm 1 mps 742 mmHg 50%
    19:00 +15°C° 0 mm 0 mps 742 mmHg 56%
    20:00 +15°C° 0 mm 1 mps 742 mmHg 58%
    21:00 +15°C° 0 mm 1 mps 742 mmHg 61%
    22:00 +14°C° 0 mm 1 mps 742 mmHg 64%
    23:00 +14°C° 0 mm 1 mps 741 mmHg 67%

    Tomorrow, 23 September, Monday

    Time Temperature Precipitation Wind Pressure Humidity
    00:00 +14°C° 0 mm 1 mps 741 mmHg 69%
    01:00 +13°C° 0 mm 2 mps 741 mmHg 72%
    02:00 +13°C° 0 mm 2 mps 741 mmHg 73%
    03:00 +13°C° 0 mm 2 mps 741 mmHg 75%
    04:00 +13°C° 0 mm 2 mps 740 mmHg 76%
    05:00 +13°C° 0 mm 2 mps 740 mmHg 74%
    06:00 +14°C° 0 mm 2 mps 740 mmHg 71%
    07:00 +14°C° 0 mm 2 mps 740 mmHg 69%
    08:00 +15°C° 0 mm 2 mps 741 mmHg 67%
    09:00 +16°C° 0 mm 2 mps 741 mmHg 64%
    10:00 +16°C° 0 mm 1 mps 741 mmHg 62%
    11:00 +18°C° 0 mm 1 mps 741 mmHg 61%
    12:00 +18°C° 0 mm 1 mps 740 mmHg 59%
    13:00 +19°C° 0 mm 1 mps 740 mmHg 58%
    14:00 +19°C° 0 mm 1 mps 740 mmHg 57%
    15:00 +19°C° 0 mm 1 mps 740 mmHg 57%
    16:00 +17°C° 0 mm 0 mps 740 mmHg 56%
    17:00 +16°C° 0 mm 0 mps 740 mmHg 58%
    18:00 +15°C° 0 mm 0 mps 740 mmHg 61%
    19:00 +14°C° 0 mm 0 mps 740 mmHg 63%
    20:00 +14°C° 0 mm 0 mps 740 mmHg 63%
    21:00 +14°C° 0 mm 0 mps 740 mmHg 64%
    22:00 +14°C° 0 mm 0 mps 741 mmHg 64%
    23:00 +14°C° 0 mm 0 mps 741 mmHg 64%

    Day after tomorrow, 24 September, Tuesday

    Time Temperature Precipitation Wind Pressure Humidity
    00:00 +13°C° 0 mm 0 mps 740 mmHg 64%
    01:00 +14°C° 0 mm 1 mps 740 mmHg 64%
    02:00 +14°C° 0 mm 1 mps 740 mmHg 64%
    03:00 +15°C° 0 mm 1 mps 740 mmHg 63%
    04:00 +15°C° 0 mm 1 mps 740 mmHg 63%
    05:00 +15°C° 0 mm 1 mps 740 mmHg 65%
    06:00 +15°C° 0 mm 1 mps 740 mmHg 67%
    07:00 +15°C° 0 mm 1 mps 740 mmHg 68%
    08:00 +16°C° 0 mm 1 mps 740 mmHg 67%
    09:00 +18°C° 0 mm 1 mps 739 mmHg 65%
    10:00 +18°C° 0 mm 1 mps 739 mmHg 63%
    11:00 +20°C° 0 mm 1 mps 739 mmHg 59%
    12:00 +21°C° 0 mm 1 mps 739 mmHg 54%
    13:00 +23°C° 0 mm 1 mps 738 mmHg 50%
    14:00 +22°C° 0 mm 1 mps 738 mmHg 51%
    15:00 +22°C° 0 mm 1 mps 738 mmHg 51%
    16:00 +20°C° 0 mm 0 mps 737 mmHg 52%
    17:00 +21°C° 0 mm 1 mps 737 mmHg 56%
    18:00 +20°C° 0 mm 1 mps 737 mmHg 60%
    19:00 +19°C° 0 mm 1 mps 737 mmHg 65%
    20:00 +18°C° 0 mm 1 mps 737 mmHg 67%
    21:00 +18°C° 0 mm 1 mps 737 mmHg 69%
    22:00 +18°C° 0 mm 1 mps 737 mmHg 71%
    23:00 +18°C° 0 mm 1 mps 737 mmHg 72%

    25 September, Wednesday

    Time Temperature Precipitation Wind Pressure Humidity
    00:00 +16°C° 0 mm 1 mps 737 mmHg 74%
    01:00 +16°C° 0 mm 2 mps 736 mmHg 75%
    02:00 +16°C° 0 mm 2 mps 736 mmHg 77%
    03:00 +16°C° 0 mm 2 mps 736 mmHg 78%
    04:00 +15°C° 0 mm 2 mps 736 mmHg 80%
    05:00 +15°C° 0 mm 2 mps 736 mmHg 80%
    06:00 +15°C° 0 mm 2 mps 736 mmHg 81%
    07:00 +15°C° 0 mm 2 mps 735 mmHg 81%
    08:00 +16°C° 0 mm 3 mps 736 mmHg 76%
    09:00 +17°C° 0 mm 3 mps 736 mmHg 71%
    10:00 +18°C° 0 mm 3 mps 736 mmHg 66%
    11:00 +19°C° 0.1 mm 3 mps 736 mmHg 65%
    12:00 +19°C° 0.1 mm 4 mps 735 mmHg 64%
    13:00 +19°C° 0.1 mm 4 mps 735 mmHg 63%
    14:00 +19°C° 0.2 mm 4 mps 735 mmHg 65%
    15:00 +18°C° 0.2 mm 3 mps 735 mmHg 67%
    16:00 +18°C° 0.2 mm 3 mps 735 mmHg 69%
    17:00 +17°C° 0.1 mm 3 mps 735 mmHg 70%
    18:00 +17°C° 0.1 mm 3 mps 736 mmHg 72%
    19:00 +15°C° 0.1 mm 4 mps 736 mmHg 74%
    20:00 +14°C° 0 mm 3 mps 737 mmHg 76%
    21:00 +13°C° 0 mm 3 mps 737 mmHg 78%
    22:00 +13°C° 0 mm 3 mps 737 mmHg 80%
    23:00 +12°C° 0 mm 3 mps 737 mmHg 82%

    26 September, Thursday

    Time Temperature Precipitation Wind Pressure Humidity
    00:00 +12°C° 0 mm 3 mps 737 mmHg 83%
    01:00 +11°C° 0 mm 3 mps 737 mmHg 84%
    02:00 +11°C° 0 mm 3 mps 738 mmHg 84%
    03:00 +11°C° 0 mm 3 mps 738 mmHg 84%
    04:00 +10°C° 0 mm 3 mps 738 mmHg 84%
    05:00 +11°C° 0 mm 3 mps 738 mmHg 83%
    06:00 +11°C° 0 mm 3 mps 738 mmHg 82%
    07:00 +11°C° 0 mm 3 mps 739 mmHg 81%
    08:00 +13°C° 0 mm 3 mps 739 mmHg 74%
    09:00 +14°C° 0 mm 3 mps 739 mmHg 67%
    10:00 +17°C° 0 mm 4 mps 740 mmHg 59%
    11:00 +17°C° 0 mm 4 mps 740 mmHg 63%
    12:00 +15°C° 0 mm 4 mps 739 mmHg 66%
    13:00 +15°C° 0 mm 5 mps 739 mmHg 70%
    14:00 +14°C° 0 mm 4 mps 739 mmHg 72%
    15:00 +14°C° 0 mm 3 mps 739 mmHg 74%
    16:00 +15°C° 0 mm 2 mps 739 mmHg 76%
    17:00 +15°C° 0 mm 2 mps 740 mmHg 78%
    18:00 +14°C° 0 mm 2 mps 740 mmHg 80%
    19:00 +14°C° 0 mm 2 mps 740 mmHg 82%
    20:00 +14°C° 0 mm 2 mps 740 mmHg 82%
    21:00 +14°C° 0 mm 2 mps 740 mmHg 82%
    22:00 +12°C° 0 mm 3 mps 741 mmHg 83%
    23:00 +13°C° 0 mm 3 mps 741 mmHg 81%

    27 September, Friday

    Time Temperature Precipitation Wind Pressure Humidity
    00:00 +13°C° 0 mm 3 mps 741 mmHg 80%
    01:00 +13°C° 0 mm 3 mps 740 mmHg 78%
    02:00 +14°C° 0 mm 2 mps 740 mmHg 78%
    03:00 +14°C° 0 mm 2 mps 740 mmHg 79%
    04:00 +14°C° 0 mm 2 mps 740 mmHg 79%
    05:00 +14°C° 0.1 mm 2 mps 740 mmHg 80%
    06:00 +14°C° 0.1 mm 2 mps 740 mmHg 80%
    07:00 +14°C° 0.1 mm 2 mps 740 mmHg 81%
    08:00 +15°C° 0 mm 2 mps 740 mmHg 78%
    09:00 +16°C° 0 mm 2 mps 741 mmHg 76%
    10:00 +16°C° 0 mm 2 mps 741 mmHg 73%
    11:00 +18°C° 0 mm 2 mps 741 mmHg 66%
    12:00 +20°C° 0 mm 2 mps 740 mmHg 60%
    13:00 +23°C° 0 mm 2 mps 740 mmHg 54%
    14:00 +23°C° 0 mm 2 mps 740 mmHg 55%
    15:00 +21°C° 0 mm 2 mps 740 mmHg 56%
    16:00 +21°C° 0 mm 2 mps 740 mmHg 57%
    17:00 +20°C° 0 mm 2 mps 740 mmHg 60%
    18:00 +19°C° 0 mm 2 mps 740 mmHg 64%
    19:00 +18°C° 0 mm 2 mps 740 mmHg 67%
    20:00 +17°C° 0 mm 2 mps 739 mmHg 69%
    21:00 +17°C° 0 mm 2 mps 739 mmHg 70%
    22:00 +16°C° 0 mm 3 mps 739 mmHg 72%
    23:00 +16°C° 0 mm 3 mps 739 mmHg 71%
    Show more